Regional Weather Roundup
Issued by NWS Northern Indiana

Home | Current Version | Previous Version | Text Only | Print | Product List | Glossary Off
Versions: 1 2 3 4 5 6 7 8 9 10 11 12 13 14 15 16 17 18 19 20 21 22 23 24 25 26 27 28 29 30 31 32 33 34 35 36 37 38 39 40 41 42 43 44 45 46 47 48 49 50

000
ASUS43 KIWX 100300
RWRIWX

KIWX WEATHER ROUNDUP
NATIONAL WEATHER SERVICE NORTHERN INDIANA
1000 PM EST FRI DEC 09 2016

NOTE: "FAIR" INDICATES FEW OR NO CLOUDS BELOW 12,000 FEET WITH NO
SIGNIFICANT WEATHER AND/OR OBSTRUCTIONS TO VISIBILITY.

* THESE STATIONS ARE NOT UNDER NWS QUALITY CONTROL. THEY ALSO MAY NOT
  REPORT WEATHER SUCH AS PRECIPITATION OR FOG.

INZ001>027-100400-
NORTHERN INDIANA

CITY           SKY/WX    TMP DP  RH WIND       PRES   REMARKS
GARY*          PTCLDY    21  14  73 W8        30.53F WCI  12
SOUTH BEND     CLOUDY    20  14  77 SW13      30.48S WCI   7
GOSHEN         CLOUDY    23  13  65 W15       30.47S WCI  10
ANGOLA*        CLOUDY    23  18  80 W10       30.43F WCI  12
FORT WAYNE     CLOUDY    24  13  62 W13       30.49F WCI  12

$$
INZ028>050-100400-
CENTRAL INDIANA

CITY           SKY/WX    TMP DP  RH WIND       PRES   REMARKS
LAFAYETTE      CLOUDY    23  17  78 NW5       30.53F WCI  17
KOKOMO*        FLURRIES  23  16  74 MISG      30.51F
MUNCIE*        CLOUDY    24  19  81 W5        30.50F WCI  18
INDIANAPOLIS   PTCLDY    20  14  77 W7        30.51F WCI  11

$$
MIZ043>046-050>051-056>058-064>065-071>073-077>080-100400-
SOUTHWEST LOWER MICHIGAN

CITY           SKY/WX    TMP DP  RH WIND       PRES   REMARKS
BATTLE CREEK   FLURRIES  23  20  88 SW9       30.41F WCI  13
BENTON HARBOR  CLOUDY    28  10  46 NW12      30.46S WCI  18
COLDWATER*     LGT SNOW  23  20  89 SW10      30.43S WCI  12
HILLSDALE*     LGT SNOW  23  19  86 SW7       30.40S WCI  15
HOLLAND        CLOUDY    27  13  55 NW10      30.43S WCI  17
GRAND RAPIDS   LGT SNOW  22  19  89 SW7       30.41F FOG     WCI  13
KALAMAZOO      LGT SNOW  24  18  77 SW6       30.43S WCI  17
STURGIS*       FLURRIES  22  17  82 W9        30.44S WCI  12
THREE RIVERS*  LGT SNOW  22  19  85 SW7       30.45S WCI  14

$$
OHZ001>008-015>018-024>025-100400-
NORTHWEST OHIO

CITY           SKY/WX    TMP DP  RH WIND       PRES   REMARKS
DEFIANCE       CLOUDY    27  17  66 VRB6      30.47F WCI  20
FINDLAY        CLOUDY    26  18  71 W14       30.46S WCI  14
TOLEDO EXPRESS CLOUDY    25  19  78 W13       30.44F WCI  14
TOLEDO METCALF CLOUDY    27  18  69 W15       30.45F WCI  15
LIMA           CLOUDY    24  18  77 W15       30.47F WCI  11

$$
AND FOR LAKE MICHIGAN COASTAL AND OPEN LAKE BUOY OBSERVATIONS

STATION/POSITION TEMP    WIND        PRES    VSBY  WAVE
                 AIR SEA DIR/SP/G                  HT/PER
                 (F)     (DEG/KT/KT) (MB)    (MI)  (FT/S)
CALUMET HARBOR    21     240/  5/  7 1032.5F
BURNS HARBOR      22     220/  9/ 12 1033.5S
SAINT JOSEPH      30     300/ 10/ 19 1032.2

$$
&&




USA.gov is the U.S. government's official web portal to all federal, state and local government web resources and services.